• Join FlightAware (Why Join?)
  • Login
  • US Flag 
01:24AM EDT


 

Airport Tracker/Info


-or-


 

Live Flight TrackerFlight Track Log ✈ SWA3408 ✈ 03-May-2013 ✈ KMDW - KIAD

Flight Track Log - Related Links

Times and Time Zones

All times are in EDT time to prevent confusion due to time zone crossing. See the SWA3408 flight status page for this flight to view local times or setup timezone preferences in your user account.

Time Position Orientation Groundspeed Altitude Reporting Facility
EDT Latitude Longitude Course Direction KTS MPH feet Rate Location/Type
07:44AM 41.8000 -87.7333 90° East 132 152 1,700  Level Chicago TRACON
07:45AM 41.8000 -87.6667 90° East 206 237 2,600 1,380 Climbing Chicago TRACON
07:46AM 41.8000 -87.5833 90° East 223 257 4,500 1,860 Climbing Chicago TRACON
07:46AM 41.8092 -87.5522 68° East 213 245 5,500 3,540 Climbing Chicago Center
07:47AM 41.7972 -87.4489 99° East 275 316 10,100 3,240 Climbing Chicago Center
07:49AM 41.7875 -87.3392 97° East 296 341 12,200 2,580 Climbing Chicago Center
07:50AM 41.7756 -87.2136 97° East 330 380 15,500 3,120 Climbing Chicago Center
07:51AM 41.7633 -87.0781 97° East 360 414 18,700 3,420 Climbing Chicago Center
07:52AM 41.7633 -86.9064 90° East 383 441 22,600 3,240 Climbing Chicago Center
07:53AM 41.7639 -86.7542 90° East 404 465 25,400 2,640 Climbing Chicago Center
07:54AM 41.7650 -86.5886 89° East 419 482 28,100 2,340 Climbing Chicago Center
07:55AM 41.7672 -86.4275 89° East 431 496 30,300 1,860 Climbing Chicago Center
07:56AM 41.7639 -86.2606 91° East 443 510 32,000 1,740 Climbing Chicago Center
07:57AM 41.7550 -86.0917 94° East 453 521 33,900 1,980 Climbing Chicago Center
07:58AM 41.7439 -85.9217 95° East 457 526 36,100 2,040 Climbing Chicago Center
07:59AM 41.7336 -85.7550 95° East 452 520 38,200 1,740 Climbing Chicago Center
08:00AM 41.7236 -85.5894 95° East 446 513 39,700 1,200 Climbing Chicago Center
08:01AM 41.7094 -85.4061 96° East 443 510 40,700 600 Climbing Chicago Center
08:02AM 41.6992 -85.2453 95° East 451 519 41,000 120 Climbing Chicago Center
08:03AM 41.6886 -85.0769 95° East 453 521 41,000  Level Chicago Center
08:03AM 41.6831 -84.9989 95° East 454 522 41,000  Level Cleveland Center
08:04AM 41.6706 -84.8339 96° East 449 517 41,000  Level Cleveland Center
08:05AM 41.6622 -84.6639 94° East 449 517 41,000  Level Cleveland Center
08:06AM 41.6553 -84.4994 93° East 449 517 41,000  Level Cleveland Center
08:07AM 41.6486 -84.3294 93° East 449 517 41,000  Level Cleveland Center
08:08AM 41.6372 -84.1619 95° East 449 517 41,000  Level Cleveland Center
08:09AM 41.6297 -83.9947 93° East 449 517 41,000  Level Cleveland Center
08:10AM 41.6181 -83.8275 95° East 449 517 41,000  Level Cleveland Center
08:11AM 41.6122 -83.6606 93° East 449 517 41,000  Level Cleveland Center
08:12AM 41.5997 -83.4933 96° East 449 517 41,000  Level Cleveland Center
08:13AM 41.5494 -83.3439 114° Southeast 434 499 41,000  Level Cleveland Center
08:14AM 41.4794 -83.2133 126° Southeast 425 489 41,000  Level Cleveland Center
08:15AM 41.3992 -83.0689 127° Southeast 443 510 41,000  Level Cleveland Center
08:16AM 41.3272 -82.9333 125° Southeast 443 510 41,000  Level Cleveland Center
08:17AM 41.2608 -82.8122 126° Southeast 448 516 41,000  Level Cleveland Center
08:18AM 41.1861 -82.6800 127° Southeast 448 516 41,000  Level Cleveland Center
08:19AM 41.1114 -82.5453 126° Southeast 448 516 41,000  Level Cleveland Center
08:20AM 41.0364 -82.4136 127° Southeast 443 510 41,000  Level Cleveland Center
08:21AM 40.9614 -82.2797 127° Southeast 443 510 41,000  Level Cleveland Center
08:22AM 40.8881 -82.1458 126° Southeast 448 516 41,000  Level Cleveland Center
08:23AM 40.8128 -82.0153 127° Southeast 448 516 41,000  Level Cleveland Center
08:24AM 40.7372 -81.8792 126° Southeast 448 516 41,000  Level Cleveland Center
08:25AM 40.6617 -81.7436 126° Southeast 448 516 41,000 -60 Level Cleveland Center
08:26AM 40.5878 -81.6139 127° Southeast 448 516 40,900 -540 Descending Cleveland Center
08:27AM 40.5117 -81.4817 127° Southeast 448 516 40,000 -480 Descending Cleveland Center
08:28AM 40.4317 -81.3358 126° Southeast 448 516 40,000  Level Cleveland Center
08:29AM 40.3572 -81.2069 127° Southeast 448 516 40,000  Level Cleveland Center
08:30AM 40.2828 -81.0783 127° Southeast 443 510 40,000  Level Cleveland Center
08:31AM 40.2083 -80.9528 128° Southeast 443 510 40,000  Level Cleveland Center
08:32AM 40.1397 -80.8356 127° Southeast 443 510 40,000  Level Cleveland Center
08:33AM 40.0669 -80.7133 128° Southeast 443 510 40,000  Level Cleveland Center
08:34AM 39.9922 -80.5858 127° Southeast 443 510 40,000  Level Cleveland Center
08:35AM 39.9192 -80.4558 126° Southeast 443 510 40,000  Level Cleveland Center
08:37AM 39.8200 -80.2383 121° Southeast 451 519 40,000 -780 Level Washington Center
08:38AM 39.7586 -80.1019 120° Southeast 451 519 38,100 -2,280 Descending Washington Center
08:39AM 39.6989 -79.9689 120° Southeast 441 507 35,500 -2,940 Descending Washington Center
08:40AM 39.6369 -79.8331 121° Southeast 441 507 32,400 -2,880 Descending Washington Center
08:41AM 39.5769 -79.6975 120° Southeast 441 507 29,800 -2,460 Descending Washington Center
08:42AM 39.5169 -79.5650 120° Southeast 436 502 27,400 -1,440 Descending Washington Center
08:43AM 39.4800 -79.4203 108° East 423 487 27,000 -900 Descending Washington Center
08:44AM 39.4475 -79.2575 104° East 423 487 25,700 -1,800 Descending Washington Center
08:45AM 39.4247 -79.1139 102° East 417 480 23,500 -2,160 Descending Washington Center
08:46AM 39.3992 -78.9811 104° East 403 464 21,500 -1,860 Descending Washington Center
08:47AM 39.3778 -78.8539 102° East 383 441 19,800 -1,800 Descending Washington Center
08:48AM 39.3539 -78.7292 104° East 363 418 18,000 -1,800 Descending Washington Center
08:49AM 39.3342 -78.6131 102° East 351 404 16,300 -1,860 Descending Washington Center
08:50AM 39.3119 -78.4967 104° East 334 384 14,300 -1,860 Descending Washington Center
08:51AM 39.2917 -78.3861 103° East 323 372 12,600 -1,560 Descending Washington Center
08:52AM 39.2481 -78.2906 120° Southeast 313 360 11,200 -1,200 Descending Washington Center
08:53AM 39.2019 -78.2083 126° Southeast 295 339 10,300 -1,320 Descending Washington Center
08:54AM 39.1914 -78.1144 98° East 260 299 8,700 -1,500 Descending Washington Center
08:55AM 39.1933 -78.0206 88° East 260 299 7,300 -1,500 Descending Washington Center
08:56AM 39.1950 -77.9297 89° East 252 290 5,800 -1,200 Descending Washington Center
08:57AM 39.2008 -77.8442 85° East 252 290 5,000 -900 Descending Washington Center
08:58AM 39.1836 -77.7633 105° East 241 277 4,000 -600 Descending Washington Center
08:59AM 39.1639 -77.6903 109° East 224 258 3,900 -420 Descending Washington Center
09:00AM 39.1333 -77.6000 114° Southeast 181 208 3,000 -660 Descending Potomac TRACON
09:01AM 39.1333 -77.5500 90° East 176 203 2,500 -540 Descending Potomac TRACON
09:02AM 39.1000 -77.4833 123° Southeast 186 214 2,000 -300 Descending Potomac TRACON
09:03AM 39.0667 -77.4500 142° Southeast 182 209 2,000 -480 Level Potomac TRACON
09:04AM 39.0167 -77.4667 195° South 160 184 1,100 -900 Descending Potomac TRACON
09:06AM 38.9474 -77.4599 165° South  Level Estimated
09:13AM 38.9474 -77.4599 165° South  Level Estimated
09:14AM 38.9474 -77.4599 165° South  Level Estimated
09:15AM 38.9474 -77.4599 165° South  Level Estimated
09:16AM 38.9474 -77.4599 165° South  Level Estimated